CEB332 RPVK-RPLL

Flight info

Callsign CEB332
Flight time 0h 41m
Altitude 24000
Route RPVK/05 MINOR2P MINOR B473 LAIYA LAIYA1A RPLL/13
Aircraft A20N/M-SDE2E3FGHIRWXY/LB1

Departure

Time 2026-05-04 02:11
Airport Kalibo International Airport (RPVK)

Arrival

Time 2026-05-04 02:53
Airport Ninoy Aquino International Airport (RPLL)
Time Latitude Longitude Altitude Speed Heading
2026-05-04 01:41 11.68583 122.38145 31 ft 0 kts 346°
2026-05-04 02:01 11.68584 122.38145 31 ft 0 kts 348°
2026-05-04 02:01 11.68585 122.38145 31 ft 0 kts 16°
2026-05-04 02:01 11.68587 122.38148 31 ft 1 kts 65°
2026-05-04 02:02 11.68583 122.38160 31 ft 2 kts 131°
2026-05-04 02:02 11.68563 122.38168 31 ft 5 kts 177°
2026-05-04 02:02 11.68530 122.38146 31 ft 6 kts 228°
2026-05-04 02:02 11.68500 122.38120 31 ft 5 kts 193°
2026-05-04 02:03 11.68460 122.38128 31 ft 5 kts 184°
2026-05-04 02:03 11.68426 122.38102 31 ft 6 kts 228°
2026-05-04 02:03 11.68394 122.38065 31 ft 7 kts 229°
2026-05-04 02:03 11.68360 122.38024 32 ft 8 kts 229°
2026-05-04 02:04 11.68320 122.37979 32 ft 8 kts 229°
2026-05-04 02:04 11.68278 122.37929 32 ft 10 kts 229°
2026-05-04 02:04 11.68221 122.37863 32 ft 14 kts 228°
2026-05-04 02:04 11.68144 122.37774 33 ft 17 kts 229°
2026-05-04 02:05 11.68066 122.37683 33 ft 16 kts 229°
2026-05-04 02:05 11.67989 122.37595 33 ft 16 kts 229°
2026-05-04 02:05 11.67914 122.37507 34 ft 16 kts 227°
2026-05-04 02:05 11.67841 122.37421 34 ft 15 kts 229°
2026-05-04 02:06 11.67769 122.37337 34 ft 15 kts 229°
2026-05-04 02:06 11.67698 122.37254 35 ft 15 kts 229°
2026-05-04 02:06 11.67626 122.37172 35 ft 15 kts 229°
2026-05-04 02:06 11.67552 122.37086 36 ft 17 kts 229°
2026-05-04 02:07 11.67466 122.36987 36 ft 19 kts 229°
2026-05-04 02:07 11.67370 122.36874 37 ft 21 kts 229°
2026-05-04 02:07 11.67275 122.36764 37 ft 18 kts 228°
2026-05-04 02:07 11.67214 122.36692 38 ft 8 kts 229°
2026-05-04 02:08 11.67183 122.36667 38 ft 3 kts 202°
2026-05-04 02:08 11.67165 122.36656 38 ft 2 kts 235°
2026-05-04 02:08 11.67170 122.36642 38 ft 2 kts 336°
2026-05-04 02:08 11.67183 122.36652 38 ft 2 kts 64°
2026-05-04 02:09 11.67195 122.36670 38 ft 2 kts 50°
2026-05-04 02:09 11.67197 122.36672 38 ft 0 kts 49°
2026-05-04 02:10 11.67276 122.36765 37 ft 52 kts 49°
2026-05-04 02:10 11.67685 122.37239 35 ft 123 kts 49°
2026-05-04 02:11 11.68376 122.38038 191 ft 164 kts 49°
2026-05-04 02:11 11.69146 122.38911 811 ft 169 kts 51°
2026-05-04 02:11 11.69978 122.39729 1522 ft 173 kts 29°
2026-05-04 02:11 11.71172 122.39900 2127 ft 184 kts 355°
2026-05-04 02:12 11.72492 122.39617 2526 ft 201 kts 347°
2026-05-04 02:12 11.73915 122.39251 2914 ft 218 kts 348°
2026-05-04 02:12 11.75472 122.38893 3214 ft 242 kts 349°
2026-05-04 02:12 11.77182 122.38543 3676 ft 260 kts 350°
2026-05-04 02:13 11.79018 122.38193 4169 ft 277 kts 351°
2026-05-04 02:13 11.80937 122.37844 4906 ft 283 kts 351°
2026-05-04 02:13 11.82877 122.37500 5710 ft 287 kts 350°
2026-05-04 02:13 11.84864 122.37151 6532 ft 291 kts 349°
2026-05-04 02:14 11.86825 122.36802 7346 ft 294 kts 349°
2026-05-04 02:14 11.88897 122.36433 8187 ft 297 kts 349°
2026-05-04 02:14 11.90856 122.36088 8978 ft 300 kts 348°
2026-05-04 02:14 11.92998 122.35711 9865 ft 301 kts 348°
2026-05-04 02:15 11.95059 122.35346 10600 ft 307 kts 348°
2026-05-04 02:15 11.97255 122.34957 11016 ft 324 kts 348°
2026-05-04 02:15 11.99529 122.34552 11361 ft 342 kts 348°
2026-05-04 02:15 12.01961 122.34018 11719 ft 357 kts 344°
2026-05-04 02:16 12.04396 122.33321 12355 ft 363 kts 342°
2026-05-04 02:16 12.06843 122.32581 12913 ft 371 kts 341°
2026-05-04 02:16 12.09360 122.31814 13476 ft 379 kts 342°
2026-05-04 02:16 12.11900 122.31039 14151 ft 382 kts 342°
2026-05-04 02:17 12.14550 122.30234 14839 ft 386 kts 342°
2026-05-04 02:17 12.17175 122.29436 15491 ft 390 kts 342°
2026-05-04 02:17 12.19820 122.28632 16130 ft 394 kts 342°
2026-05-04 02:17 12.22457 122.27830 16750 ft 397 kts 342°
2026-05-04 02:18 12.25120 122.27020 17358 ft 401 kts 342°
2026-05-04 02:18 12.27823 122.26199 17956 ft 404 kts 342°
2026-05-04 02:18 12.30538 122.25373 18542 ft 408 kts 342°
2026-05-04 02:18 12.33248 122.24545 19104 ft 411 kts 341°
2026-05-04 02:19 12.35897 122.23543 19644 ft 413 kts 335°
2026-05-04 02:19 12.38489 122.22230 20192 ft 416 kts 329°
2026-05-04 02:19 12.40939 122.20661 20730 ft 418 kts 325°
2026-05-04 02:19 12.43380 122.18974 21267 ft 421 kts 324°
2026-05-04 02:20 12.45827 122.17261 21781 ft 425 kts 324°
2026-05-04 02:20 12.48295 122.15533 22288 ft 428 kts 324°
2026-05-04 02:20 12.50746 122.13821 22781 ft 431 kts 324°
2026-05-04 02:20 12.53256 122.12071 23270 ft 435 kts 324°
2026-05-04 02:21 12.55795 122.10303 23736 ft 438 kts 324°
2026-05-04 02:21 12.58242 122.08600 23949 ft 440 kts 324°
2026-05-04 02:21 12.60792 122.06825 23951 ft 439 kts 324°
2026-05-04 02:21 12.63317 122.05069 23953 ft 439 kts 324°
2026-05-04 02:22 12.65862 122.03299 23953 ft 439 kts 324°
2026-05-04 02:22 12.68416 122.01522 23954 ft 439 kts 324°
2026-05-04 02:22 12.70932 121.99771 23954 ft 439 kts 324°
2026-05-04 02:22 12.73445 121.98022 23954 ft 439 kts 324°
2026-05-04 02:23 12.75946 121.96281 23954 ft 439 kts 324°
2026-05-04 02:23 12.78477 121.94518 23954 ft 439 kts 324°
2026-05-04 02:23 12.80964 121.92786 23954 ft 439 kts 324°
2026-05-04 02:23 12.83506 121.91014 23954 ft 439 kts 324°
2026-05-04 02:24 12.86007 121.89271 23954 ft 439 kts 324°
2026-05-04 02:24 12.88551 121.87497 23954 ft 439 kts 324°
2026-05-04 02:24 12.91070 121.85740 23954 ft 439 kts 324°
2026-05-04 02:24 12.93598 121.83978 23954 ft 439 kts 324°
2026-05-04 02:25 12.96120 121.82217 23954 ft 439 kts 324°
2026-05-04 02:25 12.98658 121.80447 23954 ft 439 kts 324°
2026-05-04 02:25 13.01175 121.78690 23955 ft 440 kts 324°
2026-05-04 02:25 13.03725 121.76910 23956 ft 440 kts 324°
2026-05-04 02:26 13.06193 121.75188 23958 ft 441 kts 324°
2026-05-04 02:26 13.08774 121.73384 23960 ft 442 kts 324°
2026-05-04 02:26 13.11267 121.71642 23962 ft 443 kts 324°
2026-05-04 02:26 13.13828 121.69852 23966 ft 444 kts 324°
2026-05-04 02:27 13.15892 121.68408 23970 ft 444 kts 324°
2026-05-04 02:27 13.18858 121.66334 23973 ft 444 kts 324°
2026-05-04 02:27 13.21439 121.64528 23976 ft 444 kts 324°
2026-05-04 02:27 13.23989 121.62743 23979 ft 444 kts 324°
2026-05-04 02:28 13.26526 121.60968 23980 ft 444 kts 324°
2026-05-04 02:28 13.29087 121.59175 23981 ft 444 kts 324°
2026-05-04 02:28 13.31628 121.57396 23982 ft 444 kts 324°
2026-05-04 02:28 13.34167 121.55617 23982 ft 444 kts 324°
2026-05-04 02:29 13.36728 121.53823 23982 ft 444 kts 324°
2026-05-04 02:29 13.39270 121.52041 23982 ft 444 kts 324°
2026-05-04 02:29 13.41859 121.50226 23982 ft 444 kts 324°
2026-05-04 02:29 13.44388 121.48452 23982 ft 444 kts 324°
2026-05-04 02:30 13.46970 121.46641 23982 ft 444 kts 324°
2026-05-04 02:30 13.49519 121.44852 23982 ft 444 kts 324°
2026-05-04 02:30 13.52034 121.43086 23982 ft 444 kts 324°
2026-05-04 02:30 13.54620 121.41271 23982 ft 444 kts 324°
2026-05-04 02:31 13.57156 121.39490 23982 ft 444 kts 324°
2026-05-04 02:31 13.59716 121.37704 23982 ft 444 kts 324°
2026-05-04 02:31 13.62266 121.35933 23982 ft 444 kts 324°
2026-05-04 02:31 13.64842 121.34142 23661 ft 446 kts 324°
2026-05-04 02:32 13.67439 121.32336 22826 ft 449 kts 324°
2026-05-04 02:32 13.69985 121.30566 22215 ft 431 kts 324°
2026-05-04 02:32 13.72390 121.28895 21633 ft 411 kts 324°
2026-05-04 02:32 13.74713 121.27278 21112 ft 392 kts 324°
2026-05-04 02:33 13.76904 121.25751 20634 ft 375 kts 323°
2026-05-04 02:33 13.79028 121.24271 20176 ft 359 kts 323°
2026-05-04 02:33 13.81049 121.22860 19740 ft 344 kts 323°
2026-05-04 02:33 13.82995 121.21500 19326 ft 337 kts 323°
2026-05-04 02:34 13.84910 121.20161 18983 ft 333 kts 323°
2026-05-04 02:34 13.86813 121.18832 18601 ft 330 kts 323°
2026-05-04 02:34 13.88733 121.17505 18211 ft 328 kts 324°
2026-05-04 02:34 13.90601 121.16221 17799 ft 326 kts 324°
2026-05-04 02:35 13.92478 121.14931 17387 ft 323 kts 324°
2026-05-04 02:35 13.94355 121.13639 16977 ft 321 kts 324°
2026-05-04 02:35 13.96207 121.12363 16570 ft 319 kts 324°
2026-05-04 02:35 13.98024 121.11108 16171 ft 316 kts 324°
2026-05-04 02:36 13.99742 121.09908 15806 ft 313 kts 325°
2026-05-04 02:36 14.01264 121.08787 15555 ft 308 kts 324°
2026-05-04 02:36 14.02980 121.07502 15191 ft 304 kts 324°
2026-05-04 02:36 14.04701 121.06216 14769 ft 303 kts 324°
2026-05-04 02:37 14.06376 121.04970 14356 ft 301 kts 324°
2026-05-04 02:37 14.08098 121.03696 13936 ft 300 kts 324°
2026-05-04 02:37 14.09792 121.02451 13522 ft 298 kts 324°
2026-05-04 02:37 14.11520 121.01186 13100 ft 297 kts 324°
2026-05-04 02:38 14.13270 120.99912 12675 ft 295 kts 324°
2026-05-04 02:38 14.15001 120.98656 12253 ft 294 kts 324°
2026-05-04 02:38 14.16718 120.97417 11835 ft 292 kts 324°
2026-05-04 02:38 14.18421 120.96185 11426 ft 291 kts 324°
2026-05-04 02:39 14.20080 120.94977 11030 ft 289 kts 324°
2026-05-04 02:39 14.21614 120.93851 10665 ft 287 kts 324°
2026-05-04 02:39 14.23240 120.92647 10275 ft 285 kts 324°
2026-05-04 02:39 14.24830 120.91455 9886 ft 284 kts 324°
2026-05-04 02:40 14.26428 120.90248 9488 ft 282 kts 324°
2026-05-04 02:40 14.28016 120.89033 9083 ft 281 kts 324°
2026-05-04 02:40 14.29566 120.87842 8690 ft 280 kts 324°
2026-05-04 02:40 14.31132 120.86624 8279 ft 279 kts 324°
2026-05-04 02:41 14.32159 120.85828 8025 ft 277 kts 324°
2026-05-04 02:41 14.34217 120.84216 7474 ft 277 kts 324°
2026-05-04 02:41 14.35729 120.83020 7070 ft 276 kts 324°
2026-05-04 02:41 14.37261 120.81808 6682 ft 274 kts 324°
2026-05-04 02:42 14.38772 120.80611 6283 ft 273 kts 324°
2026-05-04 02:42 14.40271 120.79408 6017 ft 273 kts 324°
2026-05-04 02:42 14.41772 120.78194 6009 ft 277 kts 324°
2026-05-04 02:42 14.43302 120.76959 5998 ft 273 kts 324°
2026-05-04 02:43 14.44780 120.75751 5645 ft 272 kts 320°
2026-05-04 02:43 14.45965 120.74196 5188 ft 275 kts 302°
2026-05-04 02:43 14.46864 120.72458 4860 ft 272 kts 298°
2026-05-04 02:43 14.47714 120.70691 4361 ft 276 kts 298°
2026-05-04 02:44 14.48810 120.69098 3946 ft 272 kts 321°
2026-05-04 02:44 14.50457 120.68198 3557 ft 266 kts 349°
2026-05-04 02:44 14.52269 120.68101 3238 ft 260 kts
2026-05-04 02:44 14.54085 120.68265 2860 ft 259 kts
2026-05-04 02:45 14.55884 120.68461 2712 ft 262 kts
2026-05-04 02:45 14.57704 120.68663 2707 ft 263 kts
2026-05-04 02:45 14.59533 120.68864 2708 ft 263 kts
2026-05-04 02:45 14.61345 120.69076 2707 ft 258 kts
2026-05-04 02:46 14.63085 120.69341 2688 ft 242 kts 19°
2026-05-04 02:46 14.64418 120.70258 2682 ft 222 kts 53°
2026-05-04 02:46 14.65100 120.71653 2700 ft 219 kts 76°
2026-05-04 02:46 14.65198 120.73220 2704 ft 218 kts 95°
2026-05-04 02:47 14.64989 120.74775 2707 ft 218 kts 99°
2026-05-04 02:47 14.64749 120.76341 2706 ft 218 kts 98°
2026-05-04 02:47 14.64520 120.77902 2706 ft 218 kts 97°
2026-05-04 02:47 14.64308 120.79453 2707 ft 219 kts 97°
2026-05-04 02:48 14.64108 120.81019 2707 ft 219 kts 96°
2026-05-04 02:48 14.63907 120.82581 2704 ft 219 kts 96°
2026-05-04 02:48 14.63702 120.84171 2707 ft 219 kts 96°
2026-05-04 02:48 14.63506 120.85721 2704 ft 218 kts 96°
2026-05-04 02:49 14.63255 120.87278 2701 ft 220 kts 108°
2026-05-04 02:49 14.62471 120.88627 2702 ft 219 kts 129°
2026-05-04 02:49 14.61430 120.89798 2611 ft 219 kts 131°
2026-05-04 02:49 14.60385 120.90936 2377 ft 215 kts 131°
2026-05-04 02:50 14.59409 120.92038 2216 ft 203 kts 130°
2026-05-04 02:50 14.58485 120.93100 1885 ft 192 kts 130°
2026-05-04 02:50 14.57636 120.94088 1634 ft 178 kts 129°
2026-05-04 02:50 14.56858 120.95006 1391 ft 162 kts 129°
2026-05-04 02:51 14.56147 120.95847 1164 ft 147 kts 130°
2026-05-04 02:51 14.55494 120.96616 944 ft 136 kts 129°
2026-05-04 02:51 14.54889 120.97357 786 ft 135 kts 128°
2026-05-04 02:51 14.54327 120.98135 666 ft 135 kts 127°
2026-05-04 02:52 14.53739 120.98894 497 ft 135 kts 128°
2026-05-04 02:52 14.53118 120.99618 342 ft 134 kts 134°
2026-05-04 02:52 14.52472 121.00297 177 ft 133 kts 136°
2026-05-04 02:52 14.51831 121.00949 84 ft 107 kts 136°
2026-05-04 02:53 14.51516 121.01279 84 ft 33 kts 133°
2026-05-04 02:53 14.51364 121.01437 84 ft 26 kts 134°
2026-05-04 02:55 14.51079 121.01731 84 ft 12 kts 135°
2026-05-04 02:55 14.51034 121.01787 84 ft 9 kts 110°
2026-05-04 02:55 14.51045 121.01848 84 ft 7 kts 52°
2026-05-04 02:56 14.51094 121.01858 84 ft 8 kts 330°
2026-05-04 02:56 14.51137 121.01815 84 ft 9 kts 315°
2026-05-04 02:56 14.51185 121.01766 84 ft 10 kts 315°
2026-05-04 02:56 14.51236 121.01713 84 ft 10 kts 314°
2026-05-04 02:57 14.51292 121.01655 84 ft 11 kts 315°
2026-05-04 02:57 14.51351 121.01594 84 ft 12 kts 315°
2026-05-04 02:57 14.51417 121.01526 84 ft 16 kts 315°
2026-05-04 02:57 14.51511 121.01429 84 ft 21 kts 315°
2026-05-04 02:58 14.51618 121.01318 84 ft 21 kts 314°
2026-05-04 02:58 14.51718 121.01215 84 ft 20 kts 314°
2026-05-04 02:58 14.51818 121.01110 84 ft 17 kts 315°
2026-05-04 02:58 14.51875 121.01052 84 ft 7 kts 321°
2026-05-04 02:59 14.51919 121.01053 84 ft 6 kts 40°
2026-05-04 02:59 14.51961 121.01067 84 ft 6 kts
2026-05-04 02:59 14.51997 121.01086 84 ft 6 kts 46°
2026-05-04 02:59 14.52026 121.01116 84 ft 5 kts 45°
2026-05-04 03:00 14.52046 121.01138 84 ft 2 kts 45°
2026-05-04 03:00 14.52051 121.01142 84 ft 0 kts 45°